EW0923 Weather Reports


Display with metric or nautical units.
time (UTC)temp
F
wind
direction
speed
MPH
gust
MPH
rain 1hr
in
rain 24hr
in
rain mn
in
humidity
%
barometer
mb
20260902130047 71 67 1.0 4.0 0.00 0.28 0.00 94 1018.7
20260902125527 71 111 1.0 4.0 0.00 0.28 0.00 94 1018.5
20260902125026 71 108 0.0 3.0 0.00 0.28 0.00 94 1018.4
20260902124545 71 51 1.0 5.0 0.00 0.28 0.00 94 1018.3
20260902124027 71 67 1.0 5.0 0.00 0.28 0.00 94 1018.5
20260902123524 71 76 2.0 4.0 0.00 0.28 0.00 94 1018.3
20260902123044 71 59 1.0 7.0 0.00 0.28 0.00 94 1018.1
20260902122532 70 84 2.0 7.0 0.00 0.28 0.00 95 1018.0
20260902122026 70 119 0.0 4.0 0.00 0.28 0.00 95 1017.9
20260902121556 70 53 1.0 4.0 0.00 0.28 0.00 95 1018.0
20260902121031 70 102 1.0 7.0 0.00 0.28 0.00 95 1017.9
20260902120525 70 76 0.0 7.0 0.00 0.28 0.00 95 1018.0
20260902120047 70 67 0.0 3.0 0.00 0.28 0.00 95 1018.0
20260902115529 70 110 1.0 3.0 0.00 0.28 0.00 95 1018.0
20260902115029 70 97 1.0 3.0 0.00 0.28 0.00 95 1018.2
20260902114551 70 92 0.0 4.0 0.00 0.28 0.00 95 1018.3
20260902114025 70 90 1.0 4.0 0.00 0.28 0.00 95 1018.2
20260902113527 70 86 0.0 4.0 0.00 0.28 0.00 95 1018.2
20260902113053 70 63 0.0 3.0 0.00 0.28 0.00 96 1018.1
20260902112527 70 77 1.0 3.0 0.00 0.28 0.00 95 1018.1
20260902112027 70 59 1.0 4.0 0.00 0.28 0.00 96 1017.9
20260902111549 70 37 1.0 4.0 0.00 0.28 0.00 95 1018.0
20260902111026 70 54 1.0 4.0 0.00 0.28 0.00 95 1018.0
20260902110527 70 94 0.0 3.0 0.00 0.28 0.00 95 1018.0
20260902110047 70 40 2.0 3.0 0.00 0.28 0.00 96 1017.9
20260902105526 70 46 0.0 3.0 0.00 0.28 0.00 96 1017.8
20260902105031 70 0 1.0 3.0 0.00 0.28 0.00 96 1017.8
20260902104601 70 44 1.0 3.0 0.00 0.28 0.00 96 1017.8
20260902104028 70 70 2.0 3.0 0.00 0.28 0.00 96 1017.6
20260902103530 70 67 1.0 3.0 0.00 0.28 0.00 95 1017.6
20260902103100 70 69 0.0 4.0 0.00 0.28 0.00 96 1017.7
20260902102528 70 63 1.0 4.0 0.00 0.28 0.00 96 1017.6
20260902102025 70 45 0.0 4.0 0.00 0.28 0.00 96 1017.7
20260902101551 70 44 1.0 4.0 0.00 0.28 0.00 96 1017.8
20260902101025 70 46 1.0 4.0 0.00 0.28 0.00 96 1017.7
20260902100531 70 38 1.0 4.0 0.00 0.28 0.00 96 1017.6
20260902100046 70 73 2.0 4.0 0.00 0.28 0.00 96 1017.5
20260902095528 70 77 1.0 3.0 0.00 0.28 0.00 96 1017.6
20260902095028 70 60 0.0 2.0 0.00 0.28 0.00 96 1017.6
20260902094553 70 46 0.0 4.0 0.00 0.28 0.00 96 1017.5
20260902094027 70 49 0.0 4.0 0.00 0.28 0.00 96 1017.4
20260902093531 70 107 0.0 2.0 0.00 0.28 0.00 96 1017.3
20260902093046 70 138 0.0 4.0 0.00 0.28 0.00 96 1017.3
20260902092529 70 138 0.0 4.0 0.00 0.28 0.00 96 1017.3
20260902092030 70 0 0.0 3.0 0.00 0.28 0.00 96 1017.3
20260902091545 70 0 0.0 3.0 0.00 0.28 0.00 96 1017.3
20260902091029 70 110 1.0 2.0 0.00 0.28 0.00 95 1017.2
20260902090526 70 95 0.0 3.0 0.00 0.28 0.00 95 1017.3
20260902090058 70 33 1.0 3.0 0.00 0.28 0.00 95 1017.1
20260902085528 70 68 0.0 3.0 0.00 0.28 0.00 95 1017.1
20260902085029 70 57 1.0 2.0 0.00 0.28 0.00 95 1017.2
20260902084547 70 69 0.0 2.0 0.00 0.28 0.00 95 1017.1
20260902084027 70 76 0.0 4.0 0.00 0.28 0.00 95 1017.1
20260902083531 70 117 1.0 6.0 0.00 0.28 0.00 95 1017.2
20260902083109 70 132 2.0 6.0 0.00 0.28 0.00 95 1017.0
20260902082525 70 115 1.0 4.0 0.00 0.28 0.00 95 1017.0
20260902082028 70 84 1.0 6.0 0.00 0.28 0.00 95 1017.1
20260902081546 70 0 2.0 6.0 0.00 0.28 0.00 95 1016.9
20260902081028 71 111 1.0 3.0 0.00 0.28 0.00 95 1017.0
20260902080528 71 118 1.0 6.0 0.00 0.28 0.00 95 1017.0
20260902080046 71 67 1.0 7.0 0.00 0.28 0.00 95 1016.8
20260902075524 71 103 1.0 7.0 0.00 0.28 0.00 95 1016.7
20260902075028 71 0 1.0 7.0 0.00 0.28 0.00 95 1016.8
20260902074553 71 66 0.0 7.0 0.00 0.28 0.00 95 1016.8
20260902074027 71 85 1.0 4.0 0.00 0.28 0.00 95 1016.7
20260902073524 71 113 1.0 4.0 0.00 0.28 0.00 95 1016.7
20260902073048 71 83 1.0 4.0 0.00 0.28 0.00 95 1016.7
20260902072526 71 51 1.0 4.0 0.00 0.28 0.00 95 1016.7
20260902072025 71 41 1.0 8.0 0.00 0.28 0.00 95 1016.7
20260902071547 71 59 2.0 8.0 0.00 0.28 0.00 95 1016.6
20260902071028 72 49 1.0 4.0 0.00 0.28 0.00 95 1016.4
20260902070527 72 98 0.0 4.0 0.00 0.28 0.00 95 1016.4
20260902070047 72 65 0.0 7.0 0.00 0.28 0.00 95 1016.3
20260902065529 72 118 1.0 7.0 0.00 0.28 0.00 95 1016.2
20260902065030 72 112 1.0 4.0 0.00 0.28 0.00 95 1016.1
20260902064547 72 67 1.0 4.0 0.00 0.28 0.00 95 1016.2
20260902064025 72 111 2.0 4.0 0.00 0.28 0.00 95 1016.2
20260902063527 72 78 1.0 3.0 0.00 0.28 0.00 95 1016.2
20260902063049 72 69 1.0 4.0 0.00 0.28 0.00 95 1016.2
20260902062524 72 128 1.0 6.0 0.00 0.28 0.00 95 1016.3
20260902062024 72 0 2.0 6.0 0.00 0.28 0.00 95 1016.4
20260902061550 72 131 1.0 3.0 0.00 0.28 0.00 95 1016.3
20260902061026 72 98 0.0 6.0 0.00 0.28 0.00 95 1016.3
20260902060528 72 122 2.0 6.0 0.00 0.28 0.00 95 1016.4
20260902060052 72 100 0.0 2.0 0.00 0.28 0.00 95 1016.3
20260902055531 72 0 0.0 1.0 0.00 0.28 0.00 95 1016.4
20260902055028 72 14 0.0 1.0 0.00 0.28 0.00 95 1016.3
20260902054554 72 0 0.0 1.0 0.00 0.28 0.00 95 1016.2
20260902054028 72 0 0.0 1.0 0.00 0.28 0.00 95 1016.4
20260902053530 72 0 0.0 1.0 0.00 0.28 0.00 95 1016.4
20260902053103 72 36 0.0 1.0 0.00 0.28 0.00 95 1016.5
20260902052527 72 49 0.0 1.0 0.00 0.28 0.00 95 1016.5
20260902052024 72 0 0.0 2.0 0.00 0.28 0.00 95 1016.5
20260902051557 72 49 0.0 2.0 0.00 0.28 0.00 95 1016.5
20260902051028 72 46 0.0 2.0 0.00 0.28 0.00 95 1016.4
20260902050529 72 0 0.0 1.0 0.00 0.28 0.00 95 1016.4
20260902050055 72 28 0.0 1.0 0.00 0.28 0.00 95 1016.5
20260902045525 72 0 0.0 2.0 0.00 0.28 0.00 95 1016.4
20260902045025 72 0 0.0 2.0 0.00 0.28 0.00 95 1016.2
20260902044549 72 130 0.0 1.0 0.00 0.28 0.00 95 1016.4
20260902044032 72 0 0.0 1.0 0.00 0.28 0.00 95 1016.4
20260902043527 72 0 0.0 1.0 0.00 0.28 0.00 95 1016.5
20260902043052 72 0 0.0 1.0 0.00 0.28 0.00 95 1016.3
20260902042525 72 0 0.0 1.0 0.00 0.28 0.00 95 1016.4
20260902042025 72 0 0.0 1.0 0.00 0.28 0.00 95 1016.4
20260902041550 72 0 0.0 2.0 0.00 0.28 0.00 95 1016.2
20260902041025 72 128 0.0 2.0 0.00 0.28 0.00 95 1016.2
20260902040529 72 0 0.0 2.0 0.00 0.28 0.00 95 1016.0
20260902040049 72 0 0.0 1.0 0.00 0.28 0.00 95 1016.1
20260902035527 72 252 0.0 2.0 0.00 0.28 0.28 94 1016.2
20260902035029 72 0 0.0 2.0 0.00 0.28 0.28 94 1016.2
20260902034548 72 0 1.0 2.0 0.00 0.28 0.28 94 1015.8
20260902034024 72 0 1.0 2.0 0.00 0.28 0.28 94 1015.7
20260902033529 72 240 0.0 2.0 0.00 0.28 0.28 94 1015.6
20260902033047 72 0 0.0 2.0 0.00 0.28 0.28 94 1015.8
20260902032531 72 258 0.0 2.0 0.00 0.28 0.28 94 1015.7
20260902032030 72 246 0.0 1.0 0.00 0.28 0.28 94 1015.7
20260902031545 72 207 0.0 1.0 0.00 0.28 0.28 94 1015.6
20260902031029 72 0 0.0 1.0 0.00 0.28 0.28 94 1015.5
20260902030524 72 0 0.0 1.0 0.00 0.28 0.28 94 1015.2
20260902030047 72 0 0.0 1.0 0.00 0.28 0.28 94 1015.1
20260902025524 73 0 0.0 3.0 0.00 0.28 0.28 94 1015.0
20260902025026 73 53 1.0 3.0 0.00 0.28 0.28 94 1015.0
20260902024546 73 111 1.0 2.0 0.00 0.28 0.28 93 1014.9
20260902024024 73 125 0.0 4.0 0.00 0.28 0.28 93 1015.2
20260902023530 72 126 0.0 4.0 0.00 0.28 0.28 94 1015.1
20260902023049 72 0 0.0 6.0 0.00 0.28 0.28 93 1015.3
20260902022525 72 0 0.0 6.0 0.01 0.28 0.28 94 1015.4
20260902022029 72 117 2.0 6.0 0.02 0.28 0.28 94 1015.4
20260902021541 72 39 1.0 6.0 0.05 0.28 0.28 94 1015.3
20260902021024 71 130 2.0 6.0 0.07 0.28 0.28 94 1015.3
20260902020526 71 62 0.0 5.0 0.09 0.28 0.28 93 1015.6
20260902020049 71 82 2.0 6.0 0.10 0.28 0.28 93 1015.4
20260902015528 71 56 3.0 6.0 0.10 0.28 0.28 93 1015.6
20260902015027 71 42 2.0 4.0 0.11 0.28 0.28 93 1015.2
20260902014546 71 329 0.0 3.0 0.18 0.28 0.28 92 1015.1
20260902014025 71 49 1.0 7.0 0.24 0.28 0.28 92 1014.6
20260902013526 71 255 1.0 11.0 0.28 0.28 0.28 92 1014.5
20260902013045 71 274 3.0 11.0 0.28 0.28 0.28 91 1014.3
20260902012528 71 238 2.0 12.0 0.27 0.27 0.27 91 1013.8
20260902012030 71 249 3.0 12.0 0.26 0.26 0.26 90 1013.3
20260902011557 72 265 4.0 12.0 0.23 0.23 0.23 89 1014.0
20260902011028 73 301 3.0 14.0 0.21 0.21 0.21 87 1014.8
20260902010525 74 294 5.0 14.0 0.18 0.18 0.18 83 1015.6
20260902010049 76 292 3.0 12.0 0.18 0.18 0.18 78 1014.7
20260902005524 77 275 1.0 5.0 0.18 0.18 0.18 85 1013.2
20260902005025 78 36 0.0 8.0 0.17 0.17 0.17 86 1013.5
20260902004549 80 242 1.0 9.0 0.09 0.09 0.09 83 1013.3
20260902004032 81 302 1.0 9.0 0.03 0.03 0.03 78 1013.3
20260902003526 82 111 3.0 6.0 0.00 0.00 0.00 76 1012.4
20260902003047 83 159 1.0 5.0 0.00 0.00 0.00 76 1012.3
20260902002527 84 217 2.0 5.0 0.00 0.00 0.00 76 1012.5
20260902002024 84 251 0.0 3.0 0.00 0.00 0.00 75 1012.4
20260902001543 84 0 0.0 2.0 0.00 0.00 0.00 75 1012.5
20260902001027 85 96 0.0 4.0 0.00 0.00 0.00 75 1012.6
20260902000525 85 0 0.0 4.0 0.00 0.00 0.00 75 1012.3
20260902000045 84 103 0.0 1.0 0.00 0.00 0.00 75 1012.2
20260901235524 84 103 0.0 1.0 0.00 0.00 0.00 75 1012.3
20260901235027 84 0 0.0 1.0 0.00 0.00 0.00 75 1012.1
20260901234552 84 0 0.0 1.0 0.00 0.00 0.00 75 1011.9
20260901234028 85 254 0.0 1.0 0.00 0.00 0.00 75 1012.1
20260901233530 85 254 0.0 1.0 0.00 0.00 0.00 74 1012.2
20260901233047 85 0 0.0 1.0 0.00 0.00 0.00 74 1012.6
20260901232528 85 0 0.0 1.0 0.00 0.00 0.00 74 1012.5
20260901232025 85 0 0.0 1.0 0.00 0.00 0.00 74 1012.7
20260901231605 85 0 0.0 1.0 0.00 0.00 0.00 73 1012.6
20260901231027 86 0 0.0 1.0 0.00 0.00 0.00 73 1012.4
20260901230532 86 0 0.0 0.0 0.00 0.00 0.00 73 1012.5
20260901230044 86 0 0.0 1.0 0.00 0.00 0.00 72 1012.5
20260901225524 87 0 0.0 1.0 0.00 0.00 0.00 72 1012.4
20260901225024 87 0 0.0 1.0 0.00 0.00 0.00 71 1012.4
20260901224552 87 269 0.0 2.0 0.00 0.00 0.00 70 1012.6
20260901224025 87 0 0.0 2.0 0.00 0.00 0.00 70 1012.6
20260901223524 87 251 0.0 2.0 0.00 0.00 0.00 69 1012.4
20260901223047 87 0 1.0 4.0 0.00 0.00 0.00 69 1012.3
20260901222527 87 295 1.0 5.0 0.00 0.00 0.00 68 1012.3
20260901222027 88 261 1.0 6.0 0.00 0.00 0.00 68 1012.2
20260901221609 88 262 1.0 6.0 0.00 0.00 0.00 67 1012.3
20260901221028 88 262 1.0 5.0 0.00 0.00 0.00 67 1012.1
20260901220528 88 267 1.0 6.0 0.00 0.00 0.00 67 1012.3
20260901220100 88 266 0.0 6.0 0.00 0.00 0.00 67 1012.5
20260901215527 88 296 1.0 4.0 0.00 0.00 0.00 67 1012.7
20260901215029 88 256 1.0 5.0 0.00 0.00 0.00 68 1012.8
20260901214555 88 306 0.0 6.0 0.00 0.00 0.00 68 1012.7
20260901214028 88 0 1.0 6.0 0.00 0.00 0.00 67 1012.6
20260901213525 88 241 1.0 7.0 0.00 0.00 0.00 67 1012.8
20260901213105 88 0 2.0 10.0 0.00 0.00 0.00 67 1012.8
20260901212524 88 265 3.0 10.0 0.00 0.00 0.00 66 1012.7
20260901212029 88 286 1.0 4.0 0.00 0.00 0.00 66 1012.6
20260901211547 88 275 0.0 4.0 0.00 0.00 0.00 67 1012.7
20260901211024 88 261 1.0 9.0 0.00 0.00 0.00 65 1012.7
20260901210530 88 280 3.0 9.0 0.00 0.00 0.00 66 1012.7
20260901210046 89 300 2.0 9.0 0.00 0.00 0.00 65 1012.8
20260901205529 89 265 1.0 5.0 0.00 0.00 0.00 64 1012.9
20260901205031 89 321 1.0 8.0 0.00 0.00 0.00 65 1012.8
20260901204602 89 311 1.0 8.0 0.00 0.00 0.00 65 1013.0
20260901204027 88 263 2.0 8.0 0.00 0.00 0.00 64 1013.0
20260901203528 89 279 1.0 11.0 0.00 0.00 0.00 64 1013.0
20260901203054 89 296 4.0 11.0 0.00 0.00 0.00 64 1012.9
20260901202528 89 251 2.0 8.0 0.00 0.00 0.00 63 1012.9
20260901202024 89 271 2.0 10.0 0.00 0.00 0.00 64 1012.9
20260901201552 89 260 3.0 10.0 0.00 0.00 0.00 62 1012.9
20260901201025 89 186 1.0 4.0 0.00 0.00 0.00 65 1012.8
20260901200528 89 271 2.0 10.0 0.00 0.00 0.00 63 1012.9
20260901200111 89 284 3.0 10.0 0.00 0.00 0.00 62 1012.8
20260901195528 89 264 2.0 10.0 0.00 0.00 0.00 63 1013.0
20260901195024 89 275 4.0 8.0 0.00 0.00 0.00 64 1013.0
20260901194603 89 256 0.0 5.0 0.00 0.00 0.00 64 1013.0
20260901194028 89 315 0.0 8.0 0.00 0.00 0.00 63 1013.1
20260901193525 89 294 1.0 8.0 0.00 0.00 0.00 63 1013.2
20260901193051 89 278 2.0 8.0 0.00 0.00 0.00 60 1013.4
20260901192530 89 267 1.0 7.0 0.00 0.00 0.00 63 1013.3
20260901192028 89 261 1.0 6.0 0.00 0.00 0.00 62 1013.3
20260901191623 89 225 2.0 5.0 0.00 0.00 0.00 62 1013.4
20260901191028 89 300 1.0 6.0 0.00 0.00 0.00 62 1013.4
20260901190527 89 244 1.0 7.0 0.00 0.00 0.00 61 1013.4
20260901190051 89 273 0.0 8.0 0.00 0.00 0.00 64 1013.4
20260901185532 89 232 3.0 8.0 0.00 0.00 0.00 63 1013.5
20260901185028 89 267 0.0 2.0 0.00 0.00 0.00 66 1013.5
20260901184554 89 229 0.0 8.0 0.00 0.00 0.00 65 1013.5
20260901184028 88 293 3.0 8.0 0.00 0.00 0.00 67 1013.6
20260901183528 88 238 1.0 5.0 0.00 0.00 0.00 67 1013.7
20260901183052 88 267 1.0 6.0 0.00 0.00 0.00 69 1013.8
20260901182524 87 284 2.0 9.0 0.00 0.00 0.00 68 1013.8
20260901182025 87 248 2.0 9.0 0.00 0.00 0.00 67 1013.9
20260901181556 87 254 2.0 9.0 0.00 0.00 0.00 69 1014.2
20260901181028 87 269 1.0 7.0 0.00 0.00 0.00 71 1014.1
20260901180527 86 298 2.0 7.0 0.00 0.00 0.00 70 1014.2
20260901180045 86 249 2.0 7.0 0.00 0.00 0.00 70 1014.3
20260901175527 86 211 1.0 4.0 0.00 0.00 0.00 70 1014.1
20260901175025 85 286 1.0 4.0 0.00 0.00 0.00 74 1014.2
20260901174554 85 252 1.0 2.0 0.00 0.00 0.00 74 1014.2
20260901174027 85 0 0.0 4.0 0.00 0.00 0.00 75 1014.2
20260901173527 84 250 1.0 4.0 0.00 0.00 0.00 75 1014.3
20260901173046 84 0 0.0 3.0 0.00 0.00 0.00 76 1014.2
20260901172525 84 236 0.0 4.0 0.00 0.00 0.00 77 1014.2
20260901172028 84 284 2.0 4.0 0.00 0.00 0.00 77 1014.4
20260901171554 83 0 1.0 3.0 0.00 0.00 0.00 78 1014.5
20260901171025 83 0 0.0 2.0 0.00 0.00 0.00 78 1014.6
20260901170528 83 277 0.0 2.0 0.00 0.00 0.00 78 1014.6
20260901170052 83 309 0.0 2.0 0.00 0.00 0.00 78 1014.7
20260901165525 83 284 0.0 2.0 0.00 0.00 0.00 78 1014.7
20260901165028 84 276 0.0 3.0 0.00 0.00 0.00 77 1015.0
20260901164605 83 290 0.0 3.0 0.00 0.00 0.00 78 1014.9
20260901164027 83 290 0.0 2.0 0.00 0.00 0.00 78 1015.0
20260901163527 83 234 1.0 3.0 0.00 0.00 0.00 78 1014.9
20260901163048 83 211 1.0 3.0 0.00 0.00 0.00 77 1014.9
20260901162525 83 0 0.0 1.0 0.00 0.00 0.00 76 1015.0
20260901162029 83 267 0.0 2.0 0.00 0.00 0.00 77 1015.1
20260901161548 83 0 1.0 2.0 0.00 0.00 0.00 77 1015.2
20260901161025 83 192 0.0 2.0 0.00 0.00 0.00 77 1015.1
20260901160525 83 263 0.0 2.0 0.00 0.00 0.00 77 1015.3
20260901160105 83 0 0.0 1.0 0.00 0.00 0.00 77 1015.3
20260901155528 83 265 0.0 3.0 0.00 0.00 0.00 77 1015.3
20260901155028 83 0 1.0 3.0 0.00 0.00 0.00 77 1015.3
20260901154551 83 250 0.0 2.0 0.00 0.00 0.00 76 1015.3
20260901154028 83 0 0.0 3.0 0.00 0.00 0.00 78 1015.4
20260901153529 83 350 1.0 3.0 0.00 0.00 0.00 77 1015.5
20260901153059 83 302 1.0 6.0 0.00 0.00 0.00 77 1015.5
20260901152527 83 0 1.0 6.0 0.00 0.00 0.00 77 1015.4
20260901152025 83 294 1.0 6.0 0.00 0.00 0.00 76 1015.4
20260901151547 83 274 2.0 4.0 0.00 0.00 0.00 78 1015.5
20260901151025 83 68 1.0 4.0 0.00 0.00 0.00 78 1015.4
20260901150530 82 333 0.0 6.0 0.00 0.00 0.00 80 1015.6
20260901150051 82 267 1.0 7.0 0.00 0.00 0.00 79 1015.5
20260901145528 82 264 2.0 7.0 0.00 0.00 0.00 79 1015.5
20260901145025 82 298 1.0 2.0 0.00 0.00 0.00 80 1015.5
20260901144549 81 294 0.0 2.0 0.00 0.00 0.00 80 1015.4
20260901144025 81 291 0.0 2.0 0.00 0.00 0.00 81 1015.3
20260901143526 81 324 0.0 3.0 0.00 0.00 0.00 81 1015.3
20260901143052 81 0 0.0 3.0 0.00 0.00 0.00 81 1015.2
20260901142528 81 267 0.0 3.0 0.00 0.00 0.00 81 1015.2
20260901142027 81 282 0.0 1.0 0.00 0.00 0.00 81 1015.1
20260901141549 81 0 0.0 6.0 0.00 0.00 0.00 81 1015.1
20260901141027 81 0 1.0 6.0 0.00 0.00 0.00 81 1015.0
20260901140527 81 0 1.0 4.0 0.00 0.00 0.00 81 1014.9
20260901140127 81 275 1.0 4.0 0.00 0.00 0.00 81 1015.0
20260901135529 81 257 1.0 4.0 0.00 0.00 0.00 81 1015.0
20260901135028 81 323 1.0 6.0 0.00 0.00 0.00 81 1015.0
20260901134542 81 288 1.0 6.0 0.00 0.00 0.00 82 1015.1
20260901134031 81 336 2.0 9.0 0.00 0.00 0.00 81 1014.9
20260901133528 81 257 2.0 9.0 0.00 0.00 0.00 81 1015.0
20260901133050 81 281 2.0 6.0 0.00 0.00 0.00 81 1015.1
20260901132529 81 313 1.0 6.0 0.00 0.00 0.00 83 1015.1
20260901132031 81 275 2.0 6.0 0.00 0.00 0.00 82 1015.2
20260901131549 81 268 2.0 8.0 0.00 0.00 0.00 82 1015.3
20260901131030 80 274 2.0 9.0 0.00 0.00 0.00 83 1015.3
20260901130525 80 240 1.0 9.0 0.00 0.00 0.00 85 1015.4